STARLINK-2193, 47770

Orbit data source: Space-Track

STARLINK-2193, 47770 is a payload satellite owned by SpaceX/Seattle (US) in LEO that was launched on Thu, 04 Mar 2021 UTC via an FALCON 9 launch vehicle from the Air Force Eastern Test Range (AFETR). Payload-class satellites include a variety of spacecraft equipped with specific instruments for various scientific and technological missions. These include communications satellites like Starlink; space stations such as the ISS; scientific satellites like the Hubble; Earth observation satellites from companies like Planet Labs, Umbra, and HawkEye 360; GPS; miniature CubeSats for education and research; and military/defense satellites.

Loading next visibility...
Identifier
47770, 2021-017BA
Orbit
LEO
Country
Flag of USUS
Related business
Manufacturer
SpaceX/Seattle
Mission
Operational Commercial Communications
Bus & Motor
STARLINK, Unknown motor
Mass
260 kg wet, ~248 kg dry
Launch date (UTC)
2021-03-04 (5 years ago)
Launch vehicle
FALCON 9
Launch site
Air Force Eastern Test Range (AFETR)
Object type
Payload
Rocket body
Debris
Shape & HBR
Box + 1 Pan, 10.1 m
Radar Cross Section
13.562 m², Large (>1 m²)

Expand to show TLE details & history
Last TLE update: 18 hours ago

TLE from 18 hours ago
0 STARLINK-2193
1 47770U 21017BA  26235.94765827  .00003670  00000-0  12992-3 0  9994
2 47770  53.1601 145.5813 0001366  82.9501 277.1656 15.31712428303498
Epoch: 2026-08-23T22:44Z
TLE epoch observation values (Epoch: 2026-08-23T22:44:37.674Z)
Latitude
-0°
Longitude
-167.81208°
Altitude
471.487 km
Speed
7.632 km/s
True Right ascension
09h 42m 19s
True Declination
0° 00' 00"
Sunlit
Object was in daylight at epoch
Visualization orbit readout
Latitude
Unknown
Longitude
Unknown
Altitude
Unknown
Speed
Unknown
Apparent Right ascension
Unknown
Apparent Declination
Unknown
Sunlit
N/A
Visualization observer readout
Local Sidereal Time
07:39:13
Azimuth
Unknown
Elevation
Unknown
Doppler factor
Unknown
Orbital elements
Apogee altitude
471.895 km
Perigee altitude
470.024 km
Semi-major axis
6,849.097 km
Eccentricity
0.00014
Inclination
53.1601°
RAAN
145.5813°
Arg. of periapsis
82.9501°
True anomaly
277.15007°
Mean anomaly
277.1656°
Eccentric anomaly
277.15783°
Mean motion
3.82907 °/min
Orbital period
94.02 mins
BSTAR
0.00012992
Loading maneuver chart data...
Computing Atmospheric mass density...

Documentation

Showing up to 5 results
|